DW7098 Weather Reports


Display with metric or nautical units.
time (UTC)temp
F
wind
direction
speed
MPH
gust
MPH
rain 1hr
in
rain 24hr
in
rain mn
in
humidity
%
barometer
mb
20260507230104 62 260 2.0 6.0 0.00 0.00 0.00
20260507223042 62 246 4.0 9.0 0.00 0.00 0.00
20260507220054 64 211 1.0 10.0 0.00 0.00 0.00
20260507210046 62 218 1.0 7.0 0.00 0.00 0.00
20260507203050 61 265 2.0 7.0 0.00 0.00 0.00
20260507200059 61 357 2.0 5.0 0.00 0.00 0.00
20260507193037 60 244 0.0 6.0 0.00 0.00 0.00
20260507190100 60 208 2.0 7.0 0.00 0.00 0.00
20260507180050 58 170 1.0 4.0 0.00 0.00 0.00
20260507173047 58 253 1.0 3.0 0.00 0.00 0.00
20260507170057 57 327 1.0 6.0 0.00 0.00 0.00
20260507163037 57 231 1.0 4.0 0.00 0.00 0.00
20260507160108 56 190 0.0 3.0 0.00 0.00 0.00
20260507153046 56 168 1.0 4.0 0.00 0.00 0.00
20260507150056 59 270 1.0 3.0 0.00 0.00 0.00
20260507140106 56 285 0.0 2.0 0.00 0.00 0.00
20260507133044 49 292 0.0 0.0 0.00 0.00 0.00
20260507123053 49 292 0.0 0.0 0.00 0.00 0.00
20260507113041 49 251 0.0 1.0 0.00 0.00 0.00
20260507110051 50 251 0.0 1.0 0.00 0.00 0.00
20260507103030 50 246 0.0 1.0 0.00 0.00 0.00
20260507093045 50 268 0.0 1.0 0.00 0.00 0.00
20260507090057 51 268 0.0 1.0 0.00 0.00 0.00
20260507083033 51 237 0.0 1.0 0.00 0.00 0.00
20260507073044 51 226 0.0 2.0 0.00 0.00 0.00
20260507070056 51 252 0.0 1.0 0.00 0.00 0.00
20260507063030 51 325 1.0 3.0 0.00 0.00 0.00
20260507050056 53 217 0.0 3.0 0.00 0.00 0.00
20260507043036 53 238 1.0 4.0 0.00 0.00 0.00
20260507033046 54 224 0.0 2.0 0.00 0.00 0.00
20260507023041 55 10 1.0 4.0 0.00 0.00 0.00
20260507020049 55 212 1.0 5.0 0.00 0.00 0.00
20260507013050 55 330 1.0 4.0 0.00 0.00 0.00
20260507010100 56 248 1.0 4.0 0.00 0.00 0.00
20260507003037 56 282 2.0 4.0 0.00 0.00 0.00
20260506233045 55 219 0.0 2.0 0.00 0.00 0.00